Theta_e
290 289 284 285 285 284 283 283 283 287 287 283 286 287 289 291 290 290 291 292 292 293 295 297 298 298 298 298 298 299 300 302 305 306 305 305 306 307 319 329 329 329 330 330
289 283 285 285 285 284 283 283 284 286 285 283 285 285 289 291 290 290 290 291 292 292 294 296 297 297 297 297 298 298 299 300 303 304 305 305 307 308 308 307 328 329 329 329
285 283 285 284 284 283 284 282 281 280 283 286 283 285 287 289 290 291 292 293 293 292 292 294 295 295 296 296 297 297 298 300 300 302 303 303 305 305 304 306 307 311 325 329
284 284 283 283 282 283 280 283 282 281 280 281 284 281 288 289 288 290 291 292 292 292 293 294 294 295 295 296 298 298 298 299 299 301 301 298 298 298 302 306 308 310 310 318
282 282 282 282 282 284 283 284 282 281 280 280 281 279 287 287 286 288 290 291 292 293 293 293 294 295 295 297 298 299 298 297 299 299 299 300 298 300 302 304 307 309 312 310
283 285 284 283 284 284 284 284 282 281 280 278 280 279 283 287 286 288 290 291 292 292 292 293 294 295 295 297 298 299 298 297 298 298 298 297 297 299 298 300 302 306 310 311
282 282 283 283 282 284 285 283 283 282 281 281 280 278 283 289 289 289 289 290 291 292 292 292 293 293 294 296 297 297 297 295 297 297 297 297 297 298 300 300 302 304 308 308
283 281 281 282 281 279 280 280 280 275 276 279 281 276 284 288 290 290 291 291 291 291 293 292 293 294 294 296 296 296 296 295 295 295 296 298 297 298 300 303 303 304 306 308
282 281 281 282 283 282 280 281 281 277 275 273 279 283 288 289 288 288 289 290 291 291 291 292 293 294 294 294 295 295 295 295 295 295 295 296 297 297 298 301 303 304 305 308
281 281 280 280 282 282 280 283 278 279 274 274 279 281 282 287 288 288 289 289 289 291 291 292 293 293 293 294 295 295 295 294 295 296 295 295 296 299 300 300 301 302 305 307
282 280 279 279 278 280 278 278 277 277 277 274 273 280 287 287 287 286 287 289 290 291 291 292 292 293 293 294 294 294 295 294 295 295 295 295 296 299 299 299 301 302 304 306
282 282 278 282 280 280 280 280 280 278 275 276 274 276 289 288 287 286 289 290 291 291 292 292 291 292 292 292 291 293 293 293 293 294 294 295 296 297 298 299 299 301 300 302
282 280 278 279 277 278 277 279 280 280 277 275 274 279 288 286 286 289 289 290 290 291 290 290 291 291 291 291 291 291 292 292 293 292 292 294 295 295 295 295 296 298 299 299
284 280 280 280 281 281 276 277 279 278 276 276 276 280 284 286 288 288 289 289 289 289 289 290 290 290 290 290 290 290 290 290 289 291 290 291 293 292 292 293 293 294 295 295
282 276 277 277 278 279 277 276 277 275 277 276 280 281 285 287 287 287 288 288 289 288 288 289 289 289 289 289 289 289 288 288 288 288 289 290 290 291 291 290 290 291 292 291
281 276 273 272 277 277 274 277 278 277 278 278 278 278 285 287 288 287 287 288 287 287 287 288 288 289 288 288 288 288 286 286 287 287 286 288 289 290 289 288 288 289 289 289
279 277 273 274 273 273 272 275 276 278 279 279 275 281 287 287 286 287 287 287 286 287 288 287 288 288 287 287 287 286 285 286 286 286 287 288 287 286 286 287 287 286 287 288
279 277 277 274 272 271 283 280 282 279 281 282 282 284 286 287 288 288 288 287 287 287 287 287 289 287 287 287 286 285 285 286 286 285 285 285 285 285 286 286 285 285 285 285
282 279 276 273 273 278 280 280 278 276 280 284 283 285 287 288 286 286 289 289 288 288 288 289 289 288 287 286 285 284 284 284 284 283 283 283 284 284 285 284 284 284 285 285
279 280 277 269 270 272 280 279 282 282 277 287 286 286 286 286 279 286 290 288 288 288 288 289 288 287 285 285 284 283 282 282 282 282 283 284 284 284 284 284 284 284 284 284
272 274 272 273 271 276 283 281 282 278 286 287 287 287 287 284 286 289 289 287 289 288 287 289 287 285 284 284 283 282 282 280 282 282 282 283 284 283 283 283 283 283 283 283
273 272 271 273 271 269 283 279 278 288 287 287 287 288 287 288 288 288 287 287 287 286 286 287 285 285 284 282 282 281 281 281 282 282 282 282 283 284 284 283 283 283 282 282
275 281 277 277 277 283 283 285 285 286 288 286 287 288 287 286 286 286 286 287 285 285 286 286 285 283 281 281 282 281 282 282 282 282 282 283 283 283 284 283 282 282 282 282
277 283 278 278 282 281 282 284 286 287 286 287 288 287 286 285 285 285 285 285 286 286 285 285 283 283 282 282 282 282 282 282 283 283 282 283 283 283 283 283 284 283 282 281
284 281 279 278 282 283 284 285 286 286 286 285 286 286 286 285 285 285 284 285 285 285 285 284 283 284 283 283 282 283 282 282 283 283 283 284 284 283 283 283 283 283 283 283
281 279 278 280 284 284 288 289 290 286 286 286 286 285 285 284 284 285 284 285 284 284 285 284 283 284 284 283 284 284 283 283 284 283 283 283 283 283 284 283 282 286 285 285
Wind_Speed
8 9 9 9 8 2 4 7 11 10 5 14 7 15 15 8 7 7 8 10 11 13 12 13 13 14 16 17 18 16 17 17 10 8 8 10 13 11 17 12 18 19 18 18
3 7 4 2 4 1 4 9 8 8 4 8 13 22 18 11 8 6 9 11 12 14 13 13 14 16 17 18 19 18 16 16 11 6 5 4 9 10 12 14 13 18 20 21
5 6 2 3 2 6 3 4 10 9 16 9 12 14 11 10 7 7 9 9 11 13 15 15 15 17 17 19 18 17 18 16 14 11 6 7 8 11 12 13 13 17 17 22
5 3 1 4 3 6 3 2 9 13 8 4 5 7 8 9 8 7 6 7 11 13 14 15 17 17 17 17 15 17 16 17 14 14 9 6 7 12 10 12 12 14 17 26
4 0 2 4 5 6 4 12 9 7 6 7 7 6 2 8 7 4 6 8 10 12 14 17 17 18 18 15 14 14 17 17 16 15 12 8 8 8 7 10 15 16 15 12
3 1 1 4 7 7 14 12 6 4 4 4 7 4 10 4 3 5 6 9 11 14 16 18 18 19 18 15 14 14 17 17 15 15 15 14 13 12 11 12 12 12 12 9
5 3 3 1 6 5 10 7 3 2 3 4 7 7 13 9 6 9 10 11 14 15 17 19 20 19 19 18 17 15 17 19 16 16 16 15 14 13 14 15 11 14 13 7
2 4 5 1 1 1 5 5 4 5 5 10 6 8 5 0 9 11 12 11 13 17 17 19 20 18 18 18 19 19 18 19 17 17 17 13 14 10 10 11 12 12 11 10
2 2 3 2 1 2 4 1 5 5 2 4 6 8 16 4 1 2 6 11 18 20 19 21 20 19 18 18 19 19 20 18 16 17 16 16 14 14 12 14 11 11 14 13
2 4 1 4 2 2 3 5 3 2 5 7 7 10 11 9 8 7 11 17 20 21 20 19 18 19 17 17 17 19 20 19 17 18 15 14 15 14 14 12 12 12 17 18
2 1 4 1 6 4 4 3 2 3 2 4 8 6 4 8 6 6 13 16 21 21 20 18 17 17 16 16 17 18 18 19 18 16 16 16 14 14 14 12 13 12 15 18
5 1 4 2 4 1 2 4 7 4 4 4 4 14 9 6 5 8 18 19 20 20 21 19 19 17 17 18 18 18 17 16 14 16 16 16 15 13 13 12 13 13 12 18
7 3 4 4 3 1 6 7 8 3 2 9 5 10 5 5 9 15 19 19 19 21 22 19 17 17 18 18 17 16 16 17 16 15 16 15 14 13 13 15 15 15 12 13
7 4 6 8 2 2 5 8 13 9 6 7 20 25 28 22 18 21 20 20 21 20 20 19 17 16 16 16 16 16 16 16 17 15 15 14 13 12 12 13 14 14 11 12
4 6 5 11 15 11 12 13 14 22 22 13 17 18 29 26 25 22 18 19 20 19 20 19 18 17 17 17 17 16 15 15 16 15 14 13 12 13 11 13 13 12 8 8
5 3 1 5 10 11 16 23 20 25 26 27 33 35 30 27 17 13 15 18 19 19 20 20 19 18 18 18 16 15 15 14 14 12 12 12 11 11 11 12 11 10 7 7
9 6 3 5 2 9 14 18 25 14 14 23 22 25 18 13 17 12 15 19 19 18 18 18 18 17 17 16 16 16 13 13 13 12 11 10 10 10 10 10 9 8 7 5
10 6 3 4 2 9 3 1 5 25 13 24 20 20 20 17 17 11 15 17 15 16 18 16 14 16 15 14 14 13 12 11 12 11 10 10 10 10 10 9 7 6 6 6
8 7 3 5 5 15 13 9 9 14 12 22 26 24 20 15 9 12 2 6 12 13 14 13 12 14 15 13 12 12 10 10 10 10 10 10 10 10 8 8 8 7 6 7
8 8 7 4 6 9 4 6 8 6 10 12 18 19 13 6 6 9 8 11 12 11 11 12 13 12 12 12 10 12 10 10 11 12 10 9 9 8 8 8 7 7 8 10
7 7 16 11 10 12 13 13 8 4 4 11 14 12 9 9 10 9 8 11 9 9 9 9 10 10 10 11 11 11 9 10 12 10 10 8 7 7 8 9 8 9 9 10
13 14 9 9 11 18 15 11 11 3 1 5 6 9 7 11 11 9 9 8 9 10 7 5 8 8 7 8 8 10 9 9 11 10 9 8 7 6 6 9 8 10 11 11
10 11 11 18 14 2 22 5 15 6 3 5 8 8 9 9 11 9 8 6 6 7 5 3 4 6 4 4 6 9 9 8 9 7 7 6 6 6 6 9 9 9 10 10
10 12 6 3 12 19 15 22 19 12 16 10 8 8 7 12 11 8 7 6 7 5 3 1 5 4 4 3 4 6 8 5 7 8 7 6 6 7 8 7 7 7 8 9
6 14 11 13 13 12 16 23 23 19 18 17 16 15 15 11 13 9 8 8 7 6 3 3 5 3 4 1 2 3 5 4 5 5 5 6 5 7 8 8 7 8 9 8
12 11 12 9 12 14 6 8 14 19 18 16 15 14 12 12 14 8 9 8 6 6 5 5 6 5 4 3 2 1 2 4 3 4 4 4 4 5 5 5 7 16 14 16
Wind_Direction
23 62 55 51 51 47 295 303 303 311 352 315 280 284 296 272 266 308 328 335 331 324 320 319 325 329 330 329 334 335 335 336 345 336 348 340 320 323 314 230 218 218 221 218
129 71 49 38 33 352 241 301 342 305 39 311 295 284 280 237 257 291 323 334 329 326 333 328 322 321 323 322 325 319 321 325 334 337 338 318 310 311 306 326 244 218 217 218
52 77 52 289 308 340 199 291 330 303 316 264 292 260 196 218 242 272 289 318 325 334 327 329 326 325 324 322 320 316 314 314 315 325 315 327 326 304 313 322 308 325 281 213
51 82 347 286 298 333 281 70 315 300 313 325 0 295 225 198 235 255 293 326 322 335 328 324 325 320 321 320 321 318 311 308 308 307 296 309 311 309 320 306 298 294 288 290
81 277 338 296 352 325 315 334 305 292 275 323 169 262 168 175 243 276 321 316 327 324 326 325 323 325 319 317 320 314 312 304 304 302 291 277 267 276 284 283 293 281 282 297
82 100 285 346 306 271 300 290 239 245 253 241 109 353 283 214 274 288 309 321 325 325 324 319 325 323 319 319 317 313 307 301 300 301 296 286 276 263 275 284 277 287 278 313
168 164 140 299 296 213 323 296 289 254 230 286 148 280 255 280 277 280 298 307 314 323 312 323 324 322 320 318 317 311 312 304 306 300 296 292 285 279 265 268 267 283 270 295
244 221 190 147 63 325 349 332 333 300 302 310 202 241 258 316 281 274 285 297 310 303 316 319 320 321 317 320 318 318 312 304 305 300 299 295 296 281 271 263 274 272 279 293
206 196 111 25 262 288 83 278 353 303 63 279 245 252 263 261 327 315 294 297 325 323 318 314 320 320 320 322 321 316 310 304 302 303 301 296 296 287 274 272 273 281 293 281
102 275 37 109 226 81 307 105 227 183 304 293 273 286 260 280 318 326 332 328 318 315 313 319 319 319 318 319 320 319 314 305 306 307 296 296 300 298 288 288 284 287 271 274
139 241 124 240 195 177 153 196 212 300 244 281 306 275 27 314 303 302 321 315 320 317 316 318 318 318 314 318 324 321 311 312 313 308 301 297 298 300 297 283 277 270 276 268
171 271 255 260 119 49 328 248 204 241 175 246 306 269 287 292 285 301 315 319 326 317 319 322 320 319 321 330 326 318 315 311 311 308 303 298 299 299 299 295 297 294 295 286
177 199 285 197 174 176 221 200 228 303 303 225 229 256 141 191 241 287 314 323 320 320 323 320 321 326 328 328 321 316 321 315 313 306 302 299 301 307 313 308 303 293 283 303
172 229 240 253 28 56 206 200 209 197 227 240 228 280 280 288 297 325 319 318 317 317 321 322 323 327 326 322 318 318 318 326 315 306 306 306 311 315 309 305 299 300 314 305
185 247 226 269 280 261 259 251 203 209 222 240 263 267 280 301 305 311 310 313 315 322 323 323 327 327 326 321 322 322 327 325 319 316 315 320 311 310 311 302 302 301 314 316
182 245 43 268 272 278 267 260 232 230 239 248 260 273 270 280 284 293 305 311 317 317 319 321 327 328 326 323 326 325 325 318 315 317 312 304 315 317 312 304 305 307 334 330
169 199 184 265 28 314 270 250 215 212 225 224 238 246 282 291 297 305 310 308 306 312 317 322 327 327 321 326 328 326 322 311 307 308 311 323 321 313 312 307 311 322 343 329
179 176 194 290 291 248 286 259 212 204 234 217 245 260 267 279 284 305 296 291 296 315 315 323 330 322 323 325 329 330 317 308 311 318 326 327 322 318 316 320 320 1 350 347
184 182 197 259 230 303 281 181 171 181 260 221 229 245 258 274 294 298 273 313 303 310 313 320 324 322 326 329 338 323 321 324 318 329 333 333 329 325 329 337 343 16 19 22
199 256 220 146 245 252 46 151 147 166 269 199 199 228 248 216 252 290 355 321 310 315 317 321 325 332 330 337 337 333 340 338 333 336 338 339 339 335 353 1 358 32 47 44
175 200 219 219 253 274 254 144 158 220 238 163 188 210 206 211 237 303 322 308 306 309 321 326 326 330 335 336 342 343 353 343 332 339 346 349 352 357 21 31 22 43 61 70
168 168 187 199 226 267 163 128 207 208 47 160 188 209 211 240 261 283 294 294 295 310 317 329 323 333 334 340 352 340 4 341 342 349 356 4 7 23 33 62 52 47 54 62
211 202 181 201 206 142 183 210 222 313 257 207 206 206 222 255 265 273 274 271 269 277 286 300 310 308 315 334 359 346 349 2 347 344 2 3 15 34 38 61 61 66 62 60
235 222 236 154 206 229 218 240 250 237 244 249 241 241 241 256 264 258 258 252 254 245 257 255 293 293 316 8 355 351 333 2 359 355 359 18 23 31 40 43 48 60 62 70
186 159 199 250 265 282 248 244 243 243 240 247 252 247 251 245 247 236 249 240 242 233 204 205 248 250 282 344 325 344 325 340 32 355 351 21 37 48 55 54 50 55 46 65
179 176 197 232 187 211 248 264 228 225 236 228 238 245 235 225 236 214 236 233 227 223 202 208 236 222 228 210 248 250 326 329 22 19 11 26 52 47 48 61 66 68 82 78